{"data":{"norad_id":68185,"intl_designator":"2026-050U","name":"STARLINK-37061","alt_names":[],"object_type":"PAYLOAD","status":"ACTIVE","operator":null,"country":"US","launch_date":"2026-03-14","launch_site_code":"AFETR","launch_vehicle":null,"mission":null,"orbit_class":"UNKNOWN","rcs_meters":null,"size_class":null,"mass_kg":null,"dimensions":null,"purposes":["comms"],"wikipedia_slug":null,"has_3d_model":false,"image_url":null,"decayed_at":null,"tle_current":{"epoch":"2026-09-19T22:06:14.628096Z","epoch_age_seconds":105846,"freshness":"FRESH","line1":"1 68185U 26050U   26262.92100264  .00021641  00000+0  65013-3 0  9994","line2":"2 68185  53.1567  80.1076 0001490  87.8947 272.2226 15.34382729 30488","mean_motion":15.34382729,"eccentricity":0.000149,"inclination_deg":53.1567,"raan_deg":80.1076,"arg_perigee_deg":87.8947,"mean_anomaly_deg":272.2226,"bstar":0.00065013,"rev_number":3048,"period_min":93.848814430966,"perigee_km":461.73528089582,"apogee_km":463.77386658479,"semimajor_km":6840.8915737403,"source":"CELESTRAK","updated_at":"2026-09-20T09:00:43.802767Z"}}}